Miscellaneous Local Product
Issued by NWS Hastings, NE

Home | Current Version | Previous Version | Graphics & Text | Print | Product List | Glossary On
Versions: 1 2 3 4 5 6 7 8 9 10 11 12 13 14 15 16 17 18 19 20 21 22 23 24 25 26 27 28 29 30 31 32 33 34 35 36 37 38 39 40 41 42 43 44 45 46 47 48 49 50
000
AXUS43 KGID 250102
MISGRI

GID CWA HOURLY WEATHER ROUNDUP
NATIONAL WEATHER SERVICE HASTINGS NE
800 PM CDT SAT JUN 24 2017

NOTE: "FAIR" INDICATES FEW OR NO CLOUDS BELOW 12,000 FEET WITH NO
SIGNIFICANT WEATHER AND/OR OBSTRUCTIONS TO VISIBILITY.

...SOUTH CENTRAL NEBRASKA...

CITY           SKY/WX    TMP DP  RH WIND       PRES   REMARKS
GRAND ISLAND   CLOUDY    74  39  28 NW9       30.21R
HASTINGS       MOSUNNY   74  42  31 W9        30.21S
KEARNEY        SUNNY     75  37  25 N9        30.22R
ORD            CLOUDY    71  36  27 W8        30.18F
YORK           CLOUDY    73  39  29 NW7       30.19S
AURORA         CLOUDY    70  47  44 W3        30.20S
LEXINGTON      SUNNY     75  42  30 NW5       30.22S
HOLDREGE       CLOUDY    73  44  35 SW5       30.22S
HEBRON         CLOUDY    74  41  30 W5        30.19S

...NEBRASKA PANHANDLE...

CITY           SKY/WX    TMP DP  RH WIND       PRES   REMARKS
CHADRON        SUNNY     73  33  23 NE12      30.24R
ALLIANCE       MOSUNNY   71  36  27 E7        30.27R
SCOTTSBLUFF    SUNNY     70  38  31 NE12      30.26R
SIDNEY         MOSUNNY   72  35  25 E8        30.28S

...WESTERN AND NORTH CENTRAL NEBRASKA...

CITY           SKY/WX    TMP DP  RH WIND       PRES   REMARKS
VALENTINE      SUNNY     75  30  19 N13G21    30.22R
AINSWORTH      SUNNY     72  36  27 N14G21    30.22S
ONEILL         SUNNY     72  38  28 NW16G23   30.19R
BROKEN BOW     CLOUDY    71  38  29 W6        30.22S
IMPERIAL       SUNNY     72  43  35 SE5       30.25R
NORTH PLATTE   SUNNY     75  36  24 NE13      30.23R
MCCOOK         CLOUDY    69  51  52 E6        30.23S

...EASTERN NEBRASKA...

CITY           SKY/WX    TMP DP  RH WIND       PRES   REMARKS
NORFOLK        SUNNY     73  38  27 N15G22    30.14R
SO SIOUX CITY  SUNNY     73  38  27 NW16      30.11R
TEKAMAH        CLEAR     76  37  24 NW14      30.12R
COLUMBUS       CLOUDY    73  41  31 W7        30.16S
ALBION         PTSUNNY   74  32  21 NW7       30.17S
OMAHA EPPLEY   CLOUDY    74  44  34 NW8       30.11R
OFFUTT AFB     CLOUDY    74  43  32 NW9       30.11S
MILLARD        PTCLDY    76  44  31 NW7       30.13R
LINCOLN        CLOUDY    76  45  33 W7        30.16R
NEBRASKA CITY  CLEAR     72  50  45 W9        30.14R
BEATRICE       PTCLDY    73  45  36 W8        30.17S
FALLS CITY     MOCLDY    73  47  39 W8        30.14R

...NORTHERN KANSAS...

CITY           SKY/WX    TMP DP  RH WIND       PRES   REMARKS
GOODLAND       PTSUNNY   72  53  51 SE5       30.23R
HILL CITY      CLOUDY    73  50  44 E9        30.22R
NORTON         CLOUDY    70  41  35 N6        30.23
PHILLIPSBURG   CLOUDY    73  43  33 CALM      30.22S
SMITH CENTER     N/A     70  52  52 CALM      30.21S
HAYS           CLOUDY    74  55  51 NE8       30.20R
RUSSELL        CLOUDY    75  51  43 NE8       30.18R
CONCORDIA      CLOUDY    73  45  36 NW5       30.19R
SALINA         CLOUDY    80  42  25 NE9       30.18R
TOPEKA         MOCLDY    77  47  34 NW3       30.16S



USA.gov is the U.S. government's official web portal to all federal, state and local government web resources and services.